This is the latest recevied weather packets stored in our database for station/object WI0K. If no packets are shown the sender has not sent any weather packets the latest 10 day(s).
| Time | Temp. | Humidity | Pressure | Rain* | Wind** | Luminosity | Snow |
|---|---|---|---|---|---|---|---|
| 1777687294 | 13.89° C | 22% | 1019.6 hPa | 0 mm | - | 3 W/m² | - |
| 1777687043 | 13.89° C | 22% | 1019.6 hPa | 0 mm | - | 3 W/m² | - |
| 1777686743 | 14.44° C | 22% | 1019.5 hPa | 0 mm | - | 4 W/m² | - |
| 1777686442 | 14.44° C | 22% | 1019.5 hPa | 0 mm | - | 8 W/m² | - |
| 1777686393 | 14.44° C | 21% | 1019.4 hPa | 0 mm | - | 11 W/m² | - |
| 1777686141 | 14.44° C | 21% | 1019.4 hPa | 0 mm | - | 11 W/m² | - |
| 1777686092 | 14.44° C | 21% | 1019.4 hPa | 0 mm | - | 17 W/m² | - |
| 1777685841 | 14.44° C | 21% | 1019.4 hPa | 0 mm | - | 17 W/m² | - |
| 1777685792 | 14.44° C | 21% | 1019.4 hPa | 0 mm | - | 20 W/m² | - |
| 1777685540 | 14.44° C | 21% | 1019.4 hPa | 0 mm | - | 20 W/m² | - |
| 1777685491 | 15° C | 21% | 1019.2 hPa | 0 mm | - | 22 W/m² | - |
| 1777685240 | 15° C | 21% | 1019.2 hPa | 0 mm | - | 22 W/m² | - |
| 1777684939 | 15° C | 21% | 1019.1 hPa | 0 mm | - | 26 W/m² | - |
| 1777684638 | 15° C | 20% | 1019.1 hPa | 0 mm | - | 31 W/m² | - |
| 1777684338 | 15° C | 20% | 832 hPa | 0 mm | - | 47 W/m² | - |
| 1777684037 | 15° C | 20% | 1019.1 hPa | 0 mm | - | 43 W/m² | - |
| 1777683736 | 15° C | 20% | 831.9 hPa | 0 mm | - | 57 W/m² | - |
| 1777683436 | 15° C | 20% | 831.9 hPa | 0 mm | - | 50 W/m² | - |
| 1777683135 | 15° C | 20% | 831.9 hPa | 0 mm | - | 49 W/m² | - |
| 1777682835 | 15° C | 20% | 831.9 hPa | 0 mm | - | 49 W/m² | - |
| 1777682534 | 15° C | 20% | 831.9 hPa | 0 mm | - | 51 W/m² | - |
| 1777682233 | 15.56° C | 20% | 831.8 hPa | 0 mm | - | 55 W/m² | - |
| 1777681933 | 15.56° C | 20% | 831.8 hPa | 0 mm | - | 63 W/m² | - |
| 1777681632 | 15.56° C | 20% | 1018.9 hPa | 0 mm | - | 106 W/m² | - |
| 1777681331 | 15.56° C | 19% | 1018.8 hPa | 0 mm | - | 65 W/m² | - |
* Rain latest hour (hover to see other rain measurements)
** Current wind speed in m/s (hover to see current wind gust speed)